Regional Weather Roundup
Issued by NWS

Home | Current Version | Previous Version | Text Only | Print | Product List | Glossary Off
Versions: 1 2 3 4 5 6 7 8 9 10 11 12 13 14 15 16 17 18 19 20 21 22 23 24 25 26 27 28 29 30 31 32 33 34 35 36 37 38 39 40 41 42 43 44 45 46 47 48 49 50

910
ASUS44 KJAN 261610
RWRMS

MISSISSIPPI HOURLY WEATHER ROUNDUP
NATIONAL WEATHER SERVICE JACKSON MS
1100 AM CDT THU MAR 26 2015

NOTE: "FAIR: INDICATES FEW OR NO CLOUDS BELOW 12,000 FEET WITH NO
SIGNIFICANT WEATHER AND/OR OBSTRUCTIONS TO VISIBILITY.

MSZ001>002-007>008-010>013-018>021-025>028-034>036-261700-
NORTHWEST MISSISSIPPI

CITY           SKY/WX    TMP DP  RH WIND       PRES   REMARKS
CLARKSDALE     PTSUNNY   66  61  82 W9        29.92R
CLEVELAND      PTSUNNY   65  62  90 SW7       29.90R
GREENWOOD      PTSUNNY   70  57  63 SW6       29.88F
GREENVILLE     CLOUDY    67  59  75 NW3       29.89S
OLIVE BRANCH   CLOUDY    59  57  94 N22G29    29.91R
OXFORD         FAIR      66  54  63 CALM      29.89F
TUNICA         PTSUNNY   64  54  68 NW12      29.92S
$$

MSZ003>006-009-014>017-022>024-029>033-037>039-261700-
NORTHEAST MISSISSIPPI

CITY           SKY/WX    TMP DP  RH WIND       PRES   REMARKS
COLUMBUS AFB   MOSUNNY   72  53  51 VRB3      29.87F
CORINTH        FAIR      68  55  64 S6        29.83F
GOLDN TRIANGLE SUNNY     70  55  60 SW6       29.88F
STARKVILLE     FAIR      70  52  52 SW6       29.89F
TUPELO         MOSUNNY   69  56  62 W6        29.87F
$$

MSZ040-058-261700-
CENTRAL MISSISSIPPI

CITY           SKY/WX    TMP DP  RH WIND       PRES   REMARKS
JACKSON INTL   MOSUNNY   72  60  66 S5        29.89F
JACKSON HAWKNS SUNNY     74  58  57 VRB3      29.89F
MERIDIAN KEY   CLOUDY    65  61  87 CALM      29.92F FOG
MERIDIAN NAS   NOT AVBL
RAYMOND        FAIR      73  68  83 NW5       29.89F
VICKSBURG      PTSUNNY   71  61  70 S7        29.90S
$$

MSZ059>079-261700-
SOUTH MISSISSIPPI

CITY           SKY/WX    TMP DP  RH WIND       PRES   REMARKS
BROOKHAVEN       N/A     70  66  88 CALM      29.91F
HATTIESBURG    CLOUDY    69  64  84 E3        29.92F
MCCOMB         MOSUNNY   71  64  78 CALM      29.90S
NATCHEZ        PTSUNNY   73  61  64 W10       29.90F
PINE BELT      CLOUDY    66  30  26 CALM      29.93R
$$

MSZ080>082-261700-
COASTAL MISSISSIPPI

CITY           SKY/WX    TMP DP  RH WIND       PRES   REMARKS
BAY ST LOUIS     N/A     68  64  88 SE5       29.91S
BILOXI         TSTM      68  66  94 SE6       29.92S FOG
PASCAGOULA     CLOUDY    67  65  93 E5        29.94R
GULFPORT       LGT RAIN  68  64  87 CALM      29.92S
$$



USA.gov is the U.S. government's official web portal to all federal, state and local government web resources and services.